Location: Alfortville
(48.8058°N, 2.4204°E)
Time: 23:01:15
(UTC+00:00)

SR - Pass Details

Date: 25 April 2026
Orbit: 568 x 852 km, 66.7° (Epoch: 19 May)

Event Time Altitude Azimuth Distance (km) Brightness Sun altitude
Rises 19:41:31 0° 325° (NW) 3,285 ? -7.4°
Reaches altitude 10° 19:43:56 10° 330° (NNW) 2,389 ? -7.8°
Maximum altitude 19:49:24 58° 49° (NE) 969 ? -8.6°
Enters shadow 19:54:46 12° 128° (SE) 2,363 ? -9.3°
